Regional Weather Roundup
Issued by NWS State College, PA

Home | Current Version | Previous Version | Text Only | Print | Product List | Glossary On
Versions: 1 2 3 4 5 6 7 8 9 10 11 12 13 14 15 16 17 18 19 20 21 22 23 24 25 26 27 28 29 30 31 32 33 34 35 36 37 38 39 40 41 42 43 44 45 46 47 48 49 50
000
ASUS41 KCTP 271510
RWRCTP

REGIONAL WEATHER ROUNDUP
NATIONAL WEATHER SERVICE STATE COLLEGE PA
1100 AM EDT MON APR 27 2015

Note: "fair" indicates few or no clouds below 12,000 feet with no
significant weather and/or obstructions to visibility.

* = STATION THAT DOES NOT REPORT PRECIPITATION /E.G. RAIN...SNOW...ETC/
    THUNDER OR FOG.

PAZ002>004-007>009-013>016-020>023-029>032-271600-
WESTERN PENNSYLVANIA

CITY           SKY/WX    TMP DP  RH WIND       PRES   REMARKS
ERIE           LGT RAIN  39  37  92 N7        29.90R FOG
MEADVILLE      CLOUDY    40  35  83 NW8       29.87R
FRANKLIN*      CLOUDY    39  32  75 NW12      29.87R
NEW CASTLE     CLOUDY    43  37  79 NW10      29.91R
BEAVER COUNTY  CLOUDY    46  36  66 NW8       29.88R
BUTLER*        CLOUDY    45  34  65 NW9       29.89R
PITTSBURGH INT CLOUDY    48  35  60 NW13      29.88R
PITTSBURGH     CLOUDY    46  30  53 NW12G17   29.88R
INDIANA*       CLOUDY    45  34  65 NW10      29.87R
LATROBE        CLOUDY    45  32  61 W7        29.88R
WASHINGTON CO* PTSUNNY   48  34  57 W13       29.91R
$$

PAZ004>006-010>012-017>019-024>028-033>037-041-042-045-046-049>053-271600-
CENTRAL PENNSYLVANIA

CITY           SKY/WX    TMP DP  RH WIND       PRES   REMARKS
BRADFORD       CLOUDY    39  33  79 NW8       29.80R
DUBOIS         CLOUDY    47  34  60 NW12      29.81R
CLEARFIELD     CLOUDY    47  31  53 NW8       29.80R
JOHNSTOWN      CLOUDY    44  30  57 NW14      29.79S
ALTOONA        CLOUDY    48  29  47 NW12      29.80S
STATE COLLEGE  CLOUDY    48  32  53 NW10      29.79R
WILLIAMSPORT   CLOUDY    52  33  48 VRB5      29.77S
SELINSGROVE    PTSUNNY   52  33  48 NW8       29.77F
FT INDIANTOWN  CLOUDY    54  32  43 W10       29.76S
CAPITAL CITY   PTSUNNY   56  31  38 N10       29.78S
HARRISBURG     MOSUNNY   55  34  45 NW12      29.77R
YORK           CLOUDY    54  35  48 NW9       29.77F
$$

PAZ038>040-043-044-047-048-054-055-060>062-067>071-271600-
EASTERN PENNSYLVANIA

CITY           SKY/WX    TMP DP  RH WIND       PRES   REMARKS
SCRANTON       CLOUDY    48  34  58 NW10      29.75R
MOUNT POCONO   CLOUDY    46  32  58 N17G23    29.71R
ALLENTOWN      CLOUDY    52  36  54 NW9       29.75R
QUAKERTOWN*    CLOUDY    50  36  57 NW7       29.75R
READING        PTSUNNY   54  34  46 NW8       29.75R
LANCASTER      PTSUNNY   56  35  45 NW16G23   29.75S
COATESVILLE    MOSUNNY   54  36  50 NW12      29.75S
POTTSTOWN      CLOUDY    54  35  48 NW8G18    29.75S
BLUE BELL      MOSUNNY   54  36  50 NW6       29.73S
DOYLESTOWN     CLOUDY    52  34  50 NW9       29.73R
WILLOW GROVE   NOT AVBL
NORTH PHILA    CLOUDY    56  33  42 NW12      29.75S
PHILADELPHIA   PTSUNNY   57  34  41 NW10G20   29.74S
$$


USA.gov is the U.S. government's official web portal to all federal, state and local government web resources and services.